Year,Month,Day,Hour,Minute,Value (Times are PST for temperature in C)
2015,09,20,00,00,17.70
2015,09,20,00,01,17.70
2015,09,20,00,02,17.70
2015,09,20,00,03,17.70
2015,09,20,00,04,17.60
2015,09,20,00,05,17.60
2015,09,20,00,06,17.60
2015,09,20,00,07,17.60
2015,09,20,00,08,17.50
2015,09,20,00,09,17.50
2015,09,20,00,10,17.50
2015,09,20,00,11,17.50
2015,09,20,00,12,17.60
2015,09,20,00,13,17.60
2015,09,20,00,14,17.60
2015,09,20,00,15,17.60
2015,09,20,00,16,17.60
2015,09,20,00,17,17.70
2015,09,20,00,18,17.70
2015,09,20,00,19,17.70
2015,09,20,00,20,17.70
2015,09,20,00,21,17.70
2015,09,20,00,22,17.70
2015,09,20,00,23,17.70
2015,09,20,00,24,17.70
2015,09,20,00,25,17.70
2015,09,20,00,26,17.70
2015,09,20,00,27,17.70
2015,09,20,00,28,17.70
2015,09,20,00,29,17.70
2015,09,20,00,30,17.80
2015,09,20,00,31,17.70
2015,09,20,00,32,17.80
2015,09,20,00,33,17.70
2015,09,20,00,34,17.70
2015,09,20,00,35,17.70
2015,09,20,00,36,17.70
2015,09,20,00,37,17.70
2015,09,20,00,38,17.70
2015,09,20,00,39,17.70
2015,09,20,00,40,17.70
2015,09,20,00,41,17.70
2015,09,20,00,42,17.70
2015,09,20,00,43,17.70
2015,09,20,00,44,17.70
2015,09,20,00,45,17.70
2015,09,20,00,46,17.70
2015,09,20,00,47,17.70
2015,09,20,00,48,17.70
2015,09,20,00,49,17.70
2015,09,20,00,50,17.70
2015,09,20,00,51,17.60
2015,09,20,00,52,17.60
2015,09,20,00,53,17.60
2015,09,20,00,54,17.60
2015,09,20,00,55,17.60
2015,09,20,00,56,17.50
2015,09,20,00,57,17.50
2015,09,20,00,58,17.50
2015,09,20,00,59,17.40
2015,09,20,01,00,17.40
2015,09,20,01,01,17.40
2015,09,20,01,02,17.40
2015,09,20,01,03,17.30
2015,09,20,01,04,17.30
2015,09,20,01,05,17.30
2015,09,20,01,06,17.30
2015,09,20,01,07,17.20
2015,09,20,01,08,17.20
2015,09,20,01,09,17.20
2015,09,20,01,10,17.20
2015,09,20,01,11,17.20
2015,09,20,01,12,17.20
2015,09,20,01,13,17.20
2015,09,20,01,14,17.10
2015,09,20,01,15,17.10
2015,09,20,01,16,17.10
2015,09,20,01,17,17.10
2015,09,20,01,18,17.10
2015,09,20,01,19,17.10
2015,09,20,01,20,17.10
2015,09,20,01,21,17.10
2015,09,20,01,22,17.10
2015,09,20,01,23,17.10
2015,09,20,01,24,17.10
2015,09,20,01,25,17.20
2015,09,20,01,26,17.20
2015,09,20,01,27,17.20
2015,09,20,01,28,17.20
2015,09,20,01,29,17.20
2015,09,20,01,30,17.20
2015,09,20,01,31,17.20
2015,09,20,01,32,17.20
2015,09,20,01,33,17.20
2015,09,20,01,34,17.20
2015,09,20,01,35,17.20
2015,09,20,01,36,17.20
2015,09,20,01,37,17.20
2015,09,20,01,38,17.20
2015,09,20,01,39,17.20
2015,09,20,01,40,17.20
2015,09,20,01,41,17.10
2015,09,20,01,42,17.10
2015,09,20,01,43,17.10
2015,09,20,01,44,17.10
2015,09,20,01,45,17.10
2015,09,20,01,46,17.10
2015,09,20,01,47,17.10
2015,09,20,01,48,17.10
2015,09,20,01,49,17.00
2015,09,20,01,50,17.00
2015,09,20,01,51,17.00
2015,09,20,01,52,17.00
2015,09,20,01,53,17.00
2015,09,20,01,54,17.00
2015,09,20,01,55,17.10
2015,09,20,01,56,17.10
2015,09,20,01,57,17.20
2015,09,20,01,58,17.30
2015,09,20,01,59,17.30
2015,09,20,02,00,17.30
2015,09,20,02,01,17.30
2015,09,20,02,02,17.40
2015,09,20,02,03,17.50
2015,09,20,02,04,17.70
2015,09,20,02,05,17.90
2015,09,20,02,06,18.10
2015,09,20,02,07,18.30
2015,09,20,02,08,18.40
2015,09,20,02,09,18.40
2015,09,20,02,10,18.40
2015,09,20,02,11,18.40
2015,09,20,02,12,18.30
2015,09,20,02,13,18.20
2015,09,20,02,14,18.10
2015,09,20,02,15,18.10
2015,09,20,02,16,18.00
2015,09,20,02,17,17.90
2015,09,20,02,18,17.90
2015,09,20,02,19,17.80
2015,09,20,02,20,17.80
2015,09,20,02,21,17.70
2015,09,20,02,22,17.60
2015,09,20,02,23,17.60
2015,09,20,02,24,17.50
2015,09,20,02,25,17.50
2015,09,20,02,26,17.40
2015,09,20,02,27,17.40
2015,09,20,02,28,17.40
2015,09,20,02,29,17.30
2015,09,20,02,30,17.30
2015,09,20,02,31,17.30
2015,09,20,02,32,17.30
2015,09,20,02,33,17.20
2015,09,20,02,34,17.20
2015,09,20,02,35,17.20
2015,09,20,02,36,17.20
2015,09,20,02,37,17.20
2015,09,20,02,38,17.20
2015,09,20,02,39,17.20
2015,09,20,02,40,17.20
2015,09,20,02,41,17.20
2015,09,20,02,42,17.20
2015,09,20,02,43,17.20
2015,09,20,02,44,17.20
2015,09,20,02,45,17.20
2015,09,20,02,46,17.30
2015,09,20,02,47,17.30
2015,09,20,02,48,17.30
2015,09,20,02,49,17.40
2015,09,20,02,50,17.40
2015,09,20,02,51,17.50
2015,09,20,02,52,17.70
2015,09,20,02,53,17.70
2015,09,20,02,54,17.90
2015,09,20,02,55,18.00
2015,09,20,02,56,18.20
2015,09,20,02,57,18.30
2015,09,20,02,58,18.50
2015,09,20,02,59,18.60
2015,09,20,03,00,18.60
2015,09,20,03,01,18.70
2015,09,20,03,02,18.80
2015,09,20,03,03,18.80
2015,09,20,03,04,18.80
2015,09,20,03,05,18.90
2015,09,20,03,06,18.90
2015,09,20,03,07,18.90
2015,09,20,03,08,19.00
2015,09,20,03,09,19.00
2015,09,20,03,10,19.00
2015,09,20,03,11,19.10
2015,09,20,03,12,19.10
2015,09,20,03,13,19.10
2015,09,20,03,14,19.10
2015,09,20,03,15,19.20
2015,09,20,03,16,19.20
2015,09,20,03,17,19.30
2015,09,20,03,18,19.30
2015,09,20,03,19,19.30
2015,09,20,03,20,19.30
2015,09,20,03,21,19.30
2015,09,20,03,22,19.30
2015,09,20,03,23,19.30
2015,09,20,03,24,19.30
2015,09,20,03,25,19.30
2015,09,20,03,26,19.30
2015,09,20,03,27,19.30
2015,09,20,03,28,19.30
2015,09,20,03,29,19.30
2015,09,20,03,30,19.30
2015,09,20,03,31,19.30
2015,09,20,03,32,19.30
2015,09,20,03,33,19.30
2015,09,20,03,34,19.30
2015,09,20,03,35,19.30
2015,09,20,03,36,19.30
2015,09,20,03,37,19.30
2015,09,20,03,38,19.30
2015,09,20,03,39,19.20
2015,09,20,03,40,19.20
2015,09,20,03,41,19.30
2015,09,20,03,42,19.20
2015,09,20,03,43,19.20
2015,09,20,03,44,19.20
2015,09,20,03,45,19.30
2015,09,20,03,46,19.30
2015,09,20,03,47,19.30
2015,09,20,03,48,19.30
2015,09,20,03,49,19.30
2015,09,20,03,50,19.30
2015,09,20,03,51,19.30
2015,09,20,03,52,19.30
2015,09,20,03,53,19.30
2015,09,20,03,54,19.30
2015,09,20,03,55,19.20
2015,09,20,03,56,19.30
2015,09,20,03,57,19.30
2015,09,20,03,58,19.30
2015,09,20,03,59,19.30
2015,09,20,04,00,19.30
2015,09,20,04,01,19.30
2015,09,20,04,02,19.30
2015,09,20,04,03,19.30
2015,09,20,04,04,19.20
2015,09,20,04,05,19.20
2015,09,20,04,06,19.20
2015,09,20,04,07,19.20
2015,09,20,04,08,19.30
2015,09,20,04,09,19.30
2015,09,20,04,10,19.30
2015,09,20,04,11,19.30
2015,09,20,04,12,19.30
2015,09,20,04,13,19.30
2015,09,20,04,14,19.30
2015,09,20,04,15,19.30
2015,09,20,04,16,19.30
2015,09,20,04,17,19.20
2015,09,20,04,18,19.20
2015,09,20,04,19,19.20
2015,09,20,04,20,19.30
2015,09,20,04,21,19.30
2015,09,20,04,22,19.30
2015,09,20,04,23,19.20
2015,09,20,04,24,19.20
2015,09,20,04,25,19.20
2015,09,20,04,26,19.20
2015,09,20,04,27,19.20
2015,09,20,04,28,19.20
2015,09,20,04,29,19.20
2015,09,20,04,30,19.20
2015,09,20,04,31,19.20
2015,09,20,04,32,19.20
2015,09,20,04,33,19.20
2015,09,20,04,34,19.20
2015,09,20,04,35,19.20
2015,09,20,04,36,19.20
2015,09,20,04,37,19.20
2015,09,20,04,38,19.20
2015,09,20,04,39,19.20
2015,09,20,04,40,19.20
2015,09,20,04,41,19.20
2015,09,20,04,42,19.20
2015,09,20,04,43,19.20
2015,09,20,04,44,19.20
2015,09,20,04,45,19.20
2015,09,20,04,46,19.20
2015,09,20,04,47,19.20
2015,09,20,04,48,19.20
2015,09,20,04,49,19.20
2015,09,20,04,50,19.30
2015,09,20,04,51,19.30
2015,09,20,04,52,19.30
2015,09,20,04,53,19.30
2015,09,20,04,54,19.30
2015,09,20,04,55,19.30
2015,09,20,04,56,19.20
2015,09,20,04,57,19.20
2015,09,20,04,58,19.20
2015,09,20,04,59,19.20
2015,09,20,05,00,19.20
2015,09,20,05,01,19.20
2015,09,20,05,02,19.20
2015,09,20,05,03,19.20
2015,09,20,05,04,19.20
2015,09,20,05,05,19.20
2015,09,20,05,06,19.20
2015,09,20,05,07,19.20
2015,09,20,05,08,19.20
2015,09,20,05,09,19.20
2015,09,20,05,10,19.20
2015,09,20,05,11,19.20
2015,09,20,05,12,19.20
2015,09,20,05,13,19.30
2015,09,20,05,14,19.30
2015,09,20,05,15,19.30
2015,09,20,05,16,19.30
2015,09,20,05,17,19.30
2015,09,20,05,18,19.30
2015,09,20,05,19,19.20
2015,09,20,05,20,19.20
2015,09,20,05,21,19.20
2015,09,20,05,22,19.20
2015,09,20,05,23,19.20
2015,09,20,05,24,19.20
2015,09,20,05,25,19.20
2015,09,20,05,26,19.20
2015,09,20,05,27,19.20
2015,09,20,05,28,19.20
2015,09,20,05,29,19.10
2015,09,20,05,30,19.10
2015,09,20,05,31,19.10
2015,09,20,05,32,19.10
2015,09,20,05,33,19.10
2015,09,20,05,34,19.10
2015,09,20,05,35,19.10
2015,09,20,05,36,19.10
2015,09,20,05,37,19.10
2015,09,20,05,38,19.10
2015,09,20,05,39,19.10
2015,09,20,05,40,19.10
2015,09,20,05,41,19.10
2015,09,20,05,42,19.00
2015,09,20,05,43,19.00
2015,09,20,05,44,19.00
2015,09,20,05,45,19.00
2015,09,20,05,46,19.00
2015,09,20,05,47,19.00
2015,09,20,05,48,19.00
2015,09,20,05,49,19.00
2015,09,20,05,50,18.90
2015,09,20,05,51,18.90
2015,09,20,05,52,18.90
2015,09,20,05,53,18.90
2015,09,20,05,54,18.90
2015,09,20,05,55,18.90
2015,09,20,05,56,18.90
2015,09,20,05,57,18.90
2015,09,20,05,58,18.90
2015,09,20,05,59,18.90
2015,09,20,06,00,18.90
2015,09,20,06,01,18.90
2015,09,20,06,02,18.80
2015,09,20,06,03,18.80
2015,09,20,06,04,18.80
2015,09,20,06,05,18.80
2015,09,20,06,06,18.80
2015,09,20,06,07,18.80
2015,09,20,06,08,18.80
2015,09,20,06,09,18.80
2015,09,20,06,10,18.70
2015,09,20,06,11,18.70
2015,09,20,06,12,18.70
2015,09,20,06,13,18.70
2015,09,20,06,14,18.70
2015,09,20,06,15,18.70
2015,09,20,06,16,18.70
2015,09,20,06,17,18.70
2015,09,20,06,18,18.60
2015,09,20,06,19,18.60
2015,09,20,06,20,18.60
2015,09,20,06,21,18.60
2015,09,20,06,22,18.50
2015,09,20,06,23,18.50
2015,09,20,06,24,18.50
2015,09,20,06,25,18.40
2015,09,20,06,26,18.40
2015,09,20,06,27,18.40
2015,09,20,06,28,18.40
2015,09,20,06,29,18.40
2015,09,20,06,30,18.30
2015,09,20,06,31,18.30
2015,09,20,06,32,18.40
2015,09,20,06,33,18.40
2015,09,20,06,34,18.40
2015,09,20,06,35,18.40
2015,09,20,06,36,18.40
2015,09,20,06,37,18.50
2015,09,20,06,38,18.50
2015,09,20,06,39,18.60
2015,09,20,06,40,18.60
2015,09,20,06,41,18.50
2015,09,20,06,42,18.50
2015,09,20,06,43,18.50
2015,09,20,06,44,18.50
2015,09,20,06,45,18.50
2015,09,20,06,46,18.50
2015,09,20,06,47,18.50
2015,09,20,06,48,18.50
2015,09,20,06,49,18.50
2015,09,20,06,50,18.50
2015,09,20,06,51,18.50
2015,09,20,06,52,18.50
2015,09,20,06,53,18.50
2015,09,20,06,54,18.50
2015,09,20,06,55,18.50
2015,09,20,06,56,18.50
2015,09,20,06,57,18.60
2015,09,20,06,58,18.60
2015,09,20,06,59,18.60
2015,09,20,07,00,18.60
2015,09,20,07,01,18.60
2015,09,20,07,02,18.70
2015,09,20,07,03,18.70
2015,09,20,07,04,18.70
2015,09,20,07,05,18.80
2015,09,20,07,06,18.80
2015,09,20,07,07,18.80
2015,09,20,07,08,18.80
2015,09,20,07,09,18.90
2015,09,20,07,10,18.90
2015,09,20,07,11,18.90
2015,09,20,07,12,18.90
2015,09,20,07,13,18.90
2015,09,20,07,14,18.90
2015,09,20,07,15,18.90
2015,09,20,07,16,18.90
2015,09,20,07,17,18.90
2015,09,20,07,18,19.00
2015,09,20,07,19,19.00
2015,09,20,07,20,19.10
2015,09,20,07,21,19.10
2015,09,20,07,22,19.10
2015,09,20,07,23,19.10
2015,09,20,07,24,19.10
2015,09,20,07,25,19.20
2015,09,20,07,26,19.20
2015,09,20,07,27,19.20
2015,09,20,07,28,19.20
2015,09,20,07,29,19.20
2015,09,20,07,30,19.20
2015,09,20,07,31,19.20
2015,09,20,07,32,19.20
2015,09,20,07,33,19.20
2015,09,20,07,34,19.20
2015,09,20,07,35,19.20
2015,09,20,07,36,19.20
2015,09,20,07,37,19.20
2015,09,20,07,38,19.20
2015,09,20,07,39,19.20
2015,09,20,07,40,19.20
2015,09,20,07,41,19.20
2015,09,20,07,42,19.20
2015,09,20,07,43,19.20
2015,09,20,07,44,19.20
2015,09,20,07,45,19.20
2015,09,20,07,46,19.20
2015,09,20,07,47,19.20
2015,09,20,07,48,19.20
2015,09,20,07,49,19.20
2015,09,20,07,50,19.20
2015,09,20,07,51,19.10
2015,09,20,07,52,19.10
2015,09,20,07,53,19.10
2015,09,20,07,54,19.10
2015,09,20,07,55,19.10
2015,09,20,07,56,19.10
2015,09,20,07,57,19.10
2015,09,20,07,58,19.10
2015,09,20,07,59,19.20
2015,09,20,08,00,19.20
2015,09,20,08,01,19.30
2015,09,20,08,02,19.30
2015,09,20,08,03,19.30
2015,09,20,08,04,19.30
2015,09,20,08,05,19.30
2015,09,20,08,06,19.30
2015,09,20,08,07,19.40
2015,09,20,08,08,19.40
2015,09,20,08,09,19.40
2015,09,20,08,10,19.40
2015,09,20,08,11,19.40
2015,09,20,08,12,19.40
2015,09,20,08,13,19.40
2015,09,20,08,14,19.40
2015,09,20,08,15,19.40
2015,09,20,08,16,19.40
2015,09,20,08,17,19.40
2015,09,20,08,18,19.40
2015,09,20,08,19,19.40
2015,09,20,08,20,19.30
2015,09,20,08,21,19.30
2015,09,20,08,22,19.30
2015,09,20,08,23,19.30
2015,09,20,08,24,19.30
2015,09,20,08,25,19.30
2015,09,20,08,26,19.30
2015,09,20,08,27,19.30
2015,09,20,08,28,19.30
2015,09,20,08,29,19.30
2015,09,20,08,30,19.30
2015,09,20,08,31,19.30
2015,09,20,08,32,19.30
2015,09,20,08,33,19.30
2015,09,20,08,34,19.30
2015,09,20,08,35,19.30
2015,09,20,08,36,19.30
2015,09,20,08,37,19.30
2015,09,20,08,38,19.30
2015,09,20,08,39,19.30
2015,09,20,08,40,19.30
2015,09,20,08,41,19.30
2015,09,20,08,42,19.40
2015,09,20,08,43,19.40
2015,09,20,08,44,19.40
2015,09,20,08,45,19.40
2015,09,20,08,46,19.40
2015,09,20,08,47,19.40
2015,09,20,08,48,19.40
2015,09,20,08,49,19.40
2015,09,20,08,50,19.40
2015,09,20,08,51,19.40
2015,09,20,08,52,19.50
2015,09,20,08,53,19.50
2015,09,20,08,54,19.60
2015,09,20,08,55,19.60
2015,09,20,08,56,19.60
2015,09,20,08,57,19.60
2015,09,20,08,58,19.60
2015,09,20,08,59,19.70
2015,09,20,09,00,19.70
2015,09,20,09,01,19.70
2015,09,20,09,02,19.80
2015,09,20,09,03,19.80
2015,09,20,09,04,19.80
2015,09,20,09,05,19.80
2015,09,20,09,06,19.90
2015,09,20,09,07,19.90
2015,09,20,09,08,19.90
2015,09,20,09,09,19.90
2015,09,20,09,10,19.90
2015,09,20,09,11,19.90
2015,09,20,09,12,19.90
2015,09,20,09,13,19.90
2015,09,20,09,14,19.80
2015,09,20,09,15,19.80
2015,09,20,09,16,19.80
2015,09,20,09,17,19.80
2015,09,20,09,18,19.80
2015,09,20,09,19,19.80
2015,09,20,09,20,19.90
2015,09,20,09,21,19.90
2015,09,20,09,22,19.90
2015,09,20,09,23,20.00
2015,09,20,09,24,20.00
2015,09,20,09,25,20.00
2015,09,20,09,26,20.10
2015,09,20,09,27,20.10
2015,09,20,09,28,20.10
2015,09,20,09,29,20.10
2015,09,20,09,30,20.10
2015,09,20,09,31,20.10
2015,09,20,09,32,20.10
2015,09,20,09,33,20.10
2015,09,20,09,34,20.10
2015,09,20,09,35,20.10
2015,09,20,09,36,20.10
2015,09,20,09,37,20.10
2015,09,20,09,38,20.10
2015,09,20,09,39,20.10
2015,09,20,09,40,20.10
2015,09,20,09,41,20.10
2015,09,20,09,42,20.10
2015,09,20,09,43,20.10
2015,09,20,09,44,20.10
2015,09,20,09,45,20.10
2015,09,20,09,46,20.10
2015,09,20,09,47,20.10
2015,09,20,09,48,20.20
2015,09,20,09,49,20.20
2015,09,20,09,50,20.20
2015,09,20,09,51,20.20
2015,09,20,09,52,20.20
2015,09,20,09,53,20.20
2015,09,20,09,54,20.30
2015,09,20,09,55,20.30
2015,09,20,09,56,20.30
2015,09,20,09,57,20.30
2015,09,20,09,58,20.30
2015,09,20,09,59,20.30
2015,09,20,10,00,20.30
2015,09,20,10,01,20.20
2015,09,20,10,02,20.20
2015,09,20,10,03,20.10
2015,09,20,10,04,20.00
2015,09,20,10,05,20.00
2015,09,20,10,06,19.90
2015,09,20,10,07,19.80
2015,09,20,10,08,19.80
2015,09,20,10,09,19.70
2015,09,20,10,10,19.60
2015,09,20,10,11,19.60
2015,09,20,10,12,19.60
2015,09,20,10,13,19.60
2015,09,20,10,14,19.50
2015,09,20,10,15,19.50
2015,09,20,10,16,19.50
2015,09,20,10,17,19.50
2015,09,20,10,18,19.50
2015,09,20,10,19,19.40
2015,09,20,10,20,19.40
2015,09,20,10,21,19.30
2015,09,20,10,22,19.30
2015,09,20,10,23,19.30
2015,09,20,10,24,19.30
2015,09,20,10,25,19.20
2015,09,20,10,26,19.20
2015,09,20,10,27,19.20
2015,09,20,10,28,19.20
2015,09,20,10,29,19.20
2015,09,20,10,30,19.20
2015,09,20,10,31,19.20
2015,09,20,10,32,19.20
2015,09,20,10,33,19.20
2015,09,20,10,34,19.20
2015,09,20,10,35,19.20
2015,09,20,10,36,19.20
2015,09,20,10,37,19.20
2015,09,20,10,38,19.20
2015,09,20,10,39,19.30
2015,09,20,10,40,19.30
2015,09,20,10,41,19.30
2015,09,20,10,42,19.30
2015,09,20,10,43,19.30
2015,09,20,10,44,19.40
2015,09,20,10,45,19.40
2015,09,20,10,46,19.50
2015,09,20,10,47,19.60
2015,09,20,10,48,19.60
2015,09,20,10,49,19.70
2015,09,20,10,50,19.80
2015,09,20,10,51,19.80
2015,09,20,10,52,19.80
2015,09,20,10,53,19.80
2015,09,20,10,54,19.90
2015,09,20,10,55,20.00
2015,09,20,10,56,20.00
2015,09,20,10,57,20.10
2015,09,20,10,58,20.10
2015,09,20,10,59,20.10
2015,09,20,11,00,20.20
2015,09,20,11,01,20.20
2015,09,20,11,02,20.20
2015,09,20,11,03,20.30
2015,09,20,11,04,20.40
2015,09,20,11,05,20.50
2015,09,20,11,06,20.60
2015,09,20,11,07,20.60
2015,09,20,11,08,20.70
2015,09,20,11,09,20.70
2015,09,20,11,10,20.80
2015,09,20,11,11,20.80
2015,09,20,11,12,20.80
2015,09,20,11,13,20.80
2015,09,20,11,14,20.90
2015,09,20,11,15,20.90
2015,09,20,11,16,21.00
2015,09,20,11,17,21.00
2015,09,20,11,18,21.10
2015,09,20,11,19,21.20
2015,09,20,11,20,21.20
2015,09,20,11,21,21.20
2015,09,20,11,22,21.30
2015,09,20,11,23,21.40
2015,09,20,11,24,21.40
2015,09,20,11,25,21.50
2015,09,20,11,26,21.50
2015,09,20,11,27,21.60
2015,09,20,11,28,21.60
2015,09,20,11,29,21.70
2015,09,20,11,30,21.70
2015,09,20,11,31,21.70
2015,09,20,11,32,21.70
2015,09,20,11,33,21.70
2015,09,20,11,34,21.70
2015,09,20,11,35,21.70
2015,09,20,11,36,21.80
2015,09,20,11,37,21.80
2015,09,20,11,38,21.80
2015,09,20,11,39,21.80
2015,09,20,11,40,21.80
2015,09,20,11,41,21.90
2015,09,20,11,42,21.90
2015,09,20,11,43,22.00
2015,09,20,11,44,22.10
2015,09,20,11,45,22.10
2015,09,20,11,46,22.20
2015,09,20,11,47,22.30
2015,09,20,11,48,22.40
2015,09,20,11,49,22.50
2015,09,20,11,50,22.50
2015,09,20,11,51,22.60
2015,09,20,11,52,22.60
2015,09,20,11,53,22.60
2015,09,20,11,54,22.60
2015,09,20,11,55,22.60
2015,09,20,11,56,22.60
2015,09,20,11,57,22.70
2015,09,20,11,58,22.70
2015,09,20,11,59,22.70
2015,09,20,12,00,22.80
2015,09,20,12,01,22.80
2015,09,20,12,02,22.80
2015,09,20,12,03,22.80
2015,09,20,12,04,22.90
2015,09,20,12,05,22.90
2015,09,20,12,06,23.00
2015,09,20,12,07,23.00
2015,09,20,12,08,23.00
2015,09,20,12,09,23.10
2015,09,20,12,10,23.20
2015,09,20,12,11,23.20
2015,09,20,12,12,23.20
2015,09,20,12,13,23.20
2015,09,20,12,14,23.20
2015,09,20,12,15,23.20
2015,09,20,12,16,23.20
2015,09,20,12,17,23.20
2015,09,20,12,18,23.20
2015,09,20,12,19,23.30
2015,09,20,12,20,23.30
2015,09,20,12,21,23.30
2015,09,20,12,22,23.30
2015,09,20,12,23,23.30
2015,09,20,12,24,23.30
2015,09,20,12,25,23.40
2015,09,20,12,26,23.40
2015,09,20,12,27,23.50
2015,09,20,12,28,23.60
2015,09,20,12,29,23.60
2015,09,20,12,30,23.60
2015,09,20,12,31,23.60
2015,09,20,12,32,23.50
2015,09,20,12,33,23.40
2015,09,20,12,34,23.40
2015,09,20,12,35,23.40
2015,09,20,12,36,23.40
2015,09,20,12,37,23.40
2015,09,20,12,38,23.30
2015,09,20,12,39,23.30
2015,09,20,12,40,23.30
2015,09,20,12,41,23.30
2015,09,20,12,42,23.30
2015,09,20,12,43,23.30
2015,09,20,12,44,23.40
2015,09,20,12,45,23.40
2015,09,20,12,46,23.40
2015,09,20,12,47,23.50
2015,09,20,12,48,23.60
2015,09,20,12,49,23.60
2015,09,20,12,50,23.70
2015,09,20,12,51,23.80
2015,09,20,12,52,23.90
2015,09,20,12,53,23.90
2015,09,20,12,54,23.90
2015,09,20,12,55,23.90
2015,09,20,12,56,23.90
2015,09,20,12,57,23.90
2015,09,20,12,58,24.00
2015,09,20,12,59,24.00
2015,09,20,13,00,24.10
2015,09,20,13,01,24.10
2015,09,20,13,02,24.20
2015,09,20,13,03,24.10
2015,09,20,13,04,24.10
2015,09,20,13,05,24.10
2015,09,20,13,06,24.10
2015,09,20,13,07,24.10
2015,09,20,13,08,24.00
2015,09,20,13,09,23.90
2015,09,20,13,10,23.90
2015,09,20,13,11,23.90
2015,09,20,13,12,23.90
2015,09,20,13,13,23.90
2015,09,20,13,14,23.90
2015,09,20,13,15,24.00
2015,09,20,13,16,23.90
2015,09,20,13,17,23.90
2015,09,20,13,18,23.90
2015,09,20,13,19,23.90
2015,09,20,13,20,24.00
2015,09,20,13,21,24.00
2015,09,20,13,22,24.00
2015,09,20,13,23,24.10
2015,09,20,13,24,24.10
2015,09,20,13,25,24.20
2015,09,20,13,26,24.30
2015,09,20,13,27,24.30
2015,09,20,13,28,24.30
2015,09,20,13,29,24.30
2015,09,20,13,30,24.20
2015,09,20,13,31,24.00
2015,09,20,13,32,23.90
2015,09,20,13,33,23.90
2015,09,20,13,34,23.90
2015,09,20,13,35,23.90
2015,09,20,13,36,23.90
2015,09,20,13,37,24.00
2015,09,20,13,38,24.00
2015,09,20,13,39,24.00
2015,09,20,13,40,24.00
2015,09,20,13,41,24.00
2015,09,20,13,42,23.90
2015,09,20,13,43,23.90
2015,09,20,13,44,23.80
2015,09,20,13,45,23.70
2015,09,20,13,46,23.60
2015,09,20,13,47,23.60
2015,09,20,13,48,23.60
2015,09,20,13,49,23.50
2015,09,20,13,50,23.50
2015,09,20,13,51,23.40
2015,09,20,13,52,23.40
2015,09,20,13,53,23.40
2015,09,20,13,54,23.50
2015,09,20,13,55,23.60
2015,09,20,13,56,23.70
2015,09,20,13,57,23.80
2015,09,20,13,58,23.80
2015,09,20,13,59,23.80
2015,09,20,14,00,23.70
2015,09,20,14,01,23.60
2015,09,20,14,02,23.60
2015,09,20,14,03,23.50
2015,09,20,14,04,23.50
2015,09,20,14,05,23.40
2015,09,20,14,06,23.40
2015,09,20,14,07,23.50
2015,09,20,14,08,23.60
2015,09,20,14,09,23.60
2015,09,20,14,10,23.60
2015,09,20,14,11,23.50
2015,09,20,14,12,23.50
2015,09,20,14,13,23.50
2015,09,20,14,14,23.50
2015,09,20,14,15,23.40
2015,09,20,14,16,23.50
2015,09,20,14,17,23.60
2015,09,20,14,18,23.60
2015,09,20,14,19,23.60
2015,09,20,14,20,23.60
2015,09,20,14,21,23.60
2015,09,20,14,22,23.60
2015,09,20,14,23,23.60
2015,09,20,14,24,23.50
2015,09,20,14,25,23.50
2015,09,20,14,26,23.40
2015,09,20,14,27,23.40
2015,09,20,14,28,23.30
2015,09,20,14,29,23.30
2015,09,20,14,30,23.30
2015,09,20,14,31,23.30
2015,09,20,14,32,23.40
2015,09,20,14,33,23.40
2015,09,20,14,34,23.40
2015,09,20,14,35,23.40
2015,09,20,14,36,23.30
2015,09,20,14,37,23.20
2015,09,20,14,38,23.10
2015,09,20,14,39,23.10
2015,09,20,14,40,23.10
2015,09,20,14,41,23.10
2015,09,20,14,42,23.10
2015,09,20,14,43,23.10
2015,09,20,14,44,23.10
2015,09,20,14,45,23.10
2015,09,20,14,46,23.10
2015,09,20,14,47,23.00
2015,09,20,14,48,23.00
2015,09,20,14,49,23.00
2015,09,20,14,50,23.00
2015,09,20,14,51,23.00
2015,09,20,14,52,23.00
2015,09,20,14,53,23.00
2015,09,20,14,54,23.00
2015,09,20,14,55,23.00
2015,09,20,14,56,23.00
2015,09,20,14,57,23.00
2015,09,20,14,58,22.90
2015,09,20,14,59,22.90
2015,09,20,15,00,22.90
2015,09,20,15,01,22.90
2015,09,20,15,02,22.90
2015,09,20,15,03,22.90
2015,09,20,15,04,22.90
2015,09,20,15,05,22.90
2015,09,20,15,06,22.90
2015,09,20,15,07,22.90
2015,09,20,15,08,22.90
2015,09,20,15,09,22.90
2015,09,20,15,10,22.90
2015,09,20,15,11,22.90
2015,09,20,15,12,22.90
2015,09,20,15,13,22.80
2015,09,20,15,14,22.80
2015,09,20,15,15,22.70
2015,09,20,15,16,22.70
2015,09,20,15,17,22.70
2015,09,20,15,18,22.70
2015,09,20,15,19,22.70
2015,09,20,15,20,22.70
2015,09,20,15,21,22.60
2015,09,20,15,22,22.60
2015,09,20,15,23,22.70
2015,09,20,15,24,22.70
2015,09,20,15,25,22.70
2015,09,20,15,26,22.70
2015,09,20,15,27,22.70
2015,09,20,15,28,22.70
2015,09,20,15,29,22.70
2015,09,20,15,30,22.70
2015,09,20,15,31,22.70
2015,09,20,15,32,22.70
2015,09,20,15,33,22.70
2015,09,20,15,34,22.70
2015,09,20,15,35,22.70
2015,09,20,15,36,22.70
2015,09,20,15,37,22.70
2015,09,20,15,38,22.70
2015,09,20,15,39,22.70
2015,09,20,15,40,22.80
2015,09,20,15,41,22.80
2015,09,20,15,42,22.90
2015,09,20,15,43,22.80
2015,09,20,15,44,22.80
2015,09,20,15,45,22.70
2015,09,20,15,46,22.60
2015,09,20,15,47,22.60
2015,09,20,15,48,22.40
2015,09,20,15,49,22.30
2015,09,20,15,50,22.20
2015,09,20,15,51,22.20
2015,09,20,15,52,22.20
2015,09,20,15,53,22.20
2015,09,20,15,54,22.20
2015,09,20,15,55,22.20
2015,09,20,15,56,22.20
2015,09,20,15,57,22.20
2015,09,20,15,58,22.20
2015,09,20,15,59,22.20
2015,09,20,16,00,22.20
2015,09,20,16,01,22.20
2015,09,20,16,02,22.00
2015,09,20,16,03,21.70
2015,09,20,16,04,21.40
2015,09,20,16,05,21.10
2015,09,20,16,06,20.70
2015,09,20,16,07,20.30
2015,09,20,16,08,19.80
2015,09,20,16,09,19.20
2015,09,20,16,10,18.80
2015,09,20,16,11,18.40
2015,09,20,16,12,18.20
2015,09,20,16,13,18.00
2015,09,20,16,14,17.90
2015,09,20,16,15,17.70
2015,09,20,16,16,17.60
2015,09,20,16,17,17.50
2015,09,20,16,18,17.40
2015,09,20,16,19,17.30
2015,09,20,16,20,17.20
2015,09,20,16,21,17.20
2015,09,20,16,22,17.20
2015,09,20,16,23,17.10
2015,09,20,16,24,17.10
2015,09,20,16,25,17.10
2015,09,20,16,26,17.00
2015,09,20,16,27,17.00
2015,09,20,16,28,17.00
2015,09,20,16,29,16.90
2015,09,20,16,30,16.90
2015,09,20,16,31,16.80
2015,09,20,16,32,16.80
2015,09,20,16,33,16.70
2015,09,20,16,34,16.70
2015,09,20,16,35,16.60
2015,09,20,16,36,16.50
2015,09,20,16,37,16.50
2015,09,20,16,38,16.40
2015,09,20,16,39,16.40
2015,09,20,16,40,16.30
2015,09,20,16,41,16.30
2015,09,20,16,42,16.20
2015,09,20,16,43,16.20
2015,09,20,16,44,16.10
2015,09,20,16,45,16.00
2015,09,20,16,46,15.90
2015,09,20,16,47,15.70
2015,09,20,16,48,15.60
2015,09,20,16,49,15.50
2015,09,20,16,50,15.40
2015,09,20,16,51,15.40
2015,09,20,16,52,15.30
2015,09,20,16,53,15.30
2015,09,20,16,54,15.30
2015,09,20,16,55,15.30
2015,09,20,16,56,15.30
2015,09,20,16,57,15.30
2015,09,20,16,58,15.30
2015,09,20,16,59,15.30
2015,09,20,17,00,15.30
2015,09,20,17,01,15.30
2015,09,20,17,02,15.30
2015,09,20,17,03,15.40
2015,09,20,17,04,15.40
2015,09,20,17,05,15.40
2015,09,20,17,06,15.50
2015,09,20,17,07,15.50
2015,09,20,17,08,15.60
2015,09,20,17,09,15.60
2015,09,20,17,10,15.60
2015,09,20,17,11,15.60
2015,09,20,17,12,15.60
2015,09,20,17,13,15.60
2015,09,20,17,14,15.60
2015,09,20,17,15,15.60
2015,09,20,17,16,15.60
2015,09,20,17,17,15.60
2015,09,20,17,18,15.70
2015,09,20,17,19,15.70